Location: Rounton
(54.4000°N, 1.3500°W)
Time: 13:44:12
(UTC+00:00)

Transit 2A Rocket - Pass Details

Date: 01 December 2021
Orbit: 584 x 918 km, 66.7° (Epoch: 17 January)

Event Time Altitude Azimuth Distance (km) Brightness Sun altitude
Rises 06:49:35 0° 151° (SSE) 3,347 9.3 -10.0°
Reaches altitude 10° 06:53:38 10° 122° (ESE) 2,492 9.3 -9.5°
Maximum altitude 06:55:45 12° 100° (E) 2,378 8.9 -9.2°
Drops below altitude 10° 06:57:55 10° 78° (ENE) 2,558 8.6 -8.9°
Sets 07:02:12 0° 51° (NE) 3,546 8.8 -8.3°
